• In Russia
  • List of Countries
  • For 7 days
  • Water Temperature
  • Satellite Maps
  • Weather Map
  • Weather Widgets
  • user-avatar
    Login

    Hourly Weather Salzburg

    Today, 23 January, Tuesday

    Time Temperature Precipitation Wind Pressure Humidity
    00:00 -3°C° 1 mm 2 mps 622 mmHg 98%
    01:00 -3°C° 1 mm 2 mps 623 mmHg 97%
    02:00 -3°C° 0.6 mm 2 mps 623 mmHg 97%
    03:00 -4°C° 0.6 mm 2 mps 624 mmHg 97%
    04:00 -5°C° 0.6 mm 3 mps 624 mmHg 96%
    05:00 -5°C° 1 mm 3 mps 624 mmHg 96%
    06:00 -6°C° 1 mm 3 mps 625 mmHg 96%
    07:00 -6°C° 1 mm 3 mps 625 mmHg 96%
    08:00 -6°C° 1 mm 3 mps 626 mmHg 96%
    09:00 -5°C° 1 mm 3 mps 627 mmHg 95%
    10:00 -5°C° 1 mm 3 mps 627 mmHg 95%
    11:00 -4°C° 0.3 mm 2 mps 628 mmHg 95%
    12:00 -3°C° 0.3 mm 2 mps 628 mmHg 94%
    13:00 -3°C° 0.3 mm 2 mps 628 mmHg 94%
    14:00 -3°C° 0 mm 2 mps 628 mmHg 94%
    15:00 -2°C° 0 mm 1 mps 629 mmHg 94%
    16:00 -2°C° 0 mm 1 mps 629 mmHg 94%
    17:00 -3°C° 0 mm 1 mps 628 mmHg 92%
    18:00 -4°C° 0 mm 1 mps 628 mmHg 89%
    19:00 -8°C° 0 mm 2 mps 628 mmHg 87%
    20:00 -8°C° 0 mm 2 mps 628 mmHg 83%
    21:00 -8°C° 0 mm 2 mps 628 mmHg 79%
    22:00 -8°C° 0 mm 2 mps 629 mmHg 76%
    23:00 -8°C° 0 mm 2 mps 629 mmHg 74%

    Tomorrow, 24 January, Wednesday

    Time Temperature Precipitation Wind Pressure Humidity
    00:00 -8°C° 0 mm 2 mps 629 mmHg 72%
    01:00 -8°C° 0 mm 2 mps 629 mmHg 70%
    02:00 -7°C° 0.1 mm 2 mps 629 mmHg 72%
    03:00 -6°C° 0.1 mm 2 mps 630 mmHg 74%
    04:00 -5°C° 0.1 mm 2 mps 630 mmHg 75%
    05:00 -4°C° 0 mm 2 mps 630 mmHg 76%
    06:00 -4°C° 0 mm 2 mps 630 mmHg 78%
    07:00 -3°C° 0 mm 2 mps 630 mmHg 79%
    08:00 -1°C° 0 mm 1 mps 631 mmHg 83%
    09:00 0°C° 0 mm 1 mps 631 mmHg 87%
    10:00 +1°C° 0 mm 1 mps 631 mmHg 91%
    11:00 +1°C° 0 mm 1 mps 631 mmHg 93%
    12:00 +2°C° 0 mm 1 mps 631 mmHg 95%
    13:00 +2°C° 0 mm 1 mps 630 mmHg 97%
    14:00 +1°C° 0 mm 2 mps 630 mmHg 97%
    15:00 -1°C° 0 mm 2 mps 630 mmHg 97%
    16:00 -2°C° 0 mm 2 mps 629 mmHg 97%
    17:00 -2°C° 0 mm 2 mps 629 mmHg 93%
    18:00 -3°C° 0 mm 2 mps 629 mmHg 89%
    19:00 -4°C° 0 mm 2 mps 628 mmHg 85%
    20:00 -4°C° 0 mm 2 mps 628 mmHg 84%
    21:00 -5°C° 0 mm 2 mps 628 mmHg 82%
    22:00 -5°C° 0 mm 2 mps 628 mmHg 81%
    23:00 -5°C° 0 mm 2 mps 628 mmHg 80%

    Day after tomorrow, 25 January, Thursday

    Time Temperature Precipitation Wind Pressure Humidity
    00:00 -5°C° 0 mm 2 mps 628 mmHg 79%
    01:00 -5°C° 0 mm 2 mps 627 mmHg 78%
    02:00 -5°C° 0 mm 2 mps 627 mmHg 77%
    03:00 -5°C° 0 mm 2 mps 627 mmHg 76%
    04:00 -5°C° 0 mm 2 mps 627 mmHg 75%
    05:00 -5°C° 0 mm 2 mps 627 mmHg 75%
    06:00 -5°C° 0 mm 2 mps 627 mmHg 75%
    07:00 -5°C° 0 mm 2 mps 626 mmHg 75%
    08:00 -4°C° 0 mm 2 mps 627 mmHg 77%
    09:00 -3°C° 0 mm 2 mps 627 mmHg 79%
    10:00 -2°C° 0 mm 2 mps 627 mmHg 82%
    11:00 -1°C° 0 mm 2 mps 626 mmHg 85%
    12:00 -1°C° 0 mm 2 mps 626 mmHg 88%
    13:00 +1°C° 0 mm 2 mps 626 mmHg 91%
    14:00 -1°C° 0 mm 2 mps 625 mmHg 92%
    15:00 -1°C° 0 mm 2 mps 625 mmHg 93%
    16:00 -2°C° 0 mm 2 mps 624 mmHg 94%
    17:00 -3°C° 0 mm 2 mps 624 mmHg 93%
    18:00 -4°C° 0 mm 2 mps 624 mmHg 91%
    19:00 -5°C° 0 mm 2 mps 623 mmHg 90%
    20:00 -5°C° 0 mm 2 mps 623 mmHg 89%
    21:00 -5°C° 0 mm 2 mps 623 mmHg 89%
    22:00 -5°C° 0 mm 2 mps 623 mmHg 88%
    23:00 -5°C° 0 mm 2 mps 623 mmHg 88%

    26 January, Friday

    Time Temperature Precipitation Wind Pressure Humidity
    00:00 -6°C° 0 mm 2 mps 623 mmHg 88%
    01:00 -6°C° 0 mm 2 mps 622 mmHg 88%
    02:00 -6°C° 0 mm 2 mps 622 mmHg 88%
    03:00 -6°C° 0 mm 2 mps 622 mmHg 88%
    04:00 -6°C° 0 mm 2 mps 622 mmHg 88%
    05:00 -5°C° 0 mm 2 mps 622 mmHg 89%
    06:00 -5°C° 0 mm 2 mps 621 mmHg 89%
    07:00 -5°C° 0 mm 2 mps 621 mmHg 89%
    08:00 -4°C° 0 mm 2 mps 622 mmHg 90%
    09:00 -3°C° 0 mm 2 mps 622 mmHg 90%
    10:00 -2°C° 0 mm 2 mps 622 mmHg 91%
    11:00 -2°C° 0 mm 2 mps 622 mmHg 91%
    12:00 -1°C° 0 mm 2 mps 622 mmHg 92%
    13:00 -1°C° 0 mm 2 mps 622 mmHg 93%
    14:00 -1°C° 0 mm 2 mps 622 mmHg 94%
    15:00 -2°C° 0 mm 2 mps 622 mmHg 94%
    16:00 -2°C° 0 mm 2 mps 622 mmHg 95%
    17:00 -3°C° 0 mm 2 mps 622 mmHg 95%
    18:00 -4°C° 0 mm 2 mps 623 mmHg 95%
    19:00 -3°C° 0 mm 1 mps 623 mmHg 95%
    20:00 -3°C° 0.4 mm 1 mps 623 mmHg 95%
    21:00 -3°C° 0.4 mm 1 mps 623 mmHg 95%
    22:00 -3°C° 0.4 mm 1 mps 624 mmHg 96%
    23:00 -2°C° 1.3 mm 1 mps 624 mmHg 96%

    27 January, Saturday

    Time Temperature Precipitation Wind Pressure Humidity
    00:00 -2°C° 1.3 mm 1 mps 625 mmHg 96%
    01:00 -2°C° 1.3 mm 1 mps 625 mmHg 97%
    02:00 -2°C° 1.2 mm 1 mps 625 mmHg 97%
    03:00 -3°C° 1.2 mm 1 mps 626 mmHg 97%
    04:00 -3°C° 1.2 mm 1 mps 626 mmHg 97%
    05:00 -3°C° 1.2 mm 1 mps 626 mmHg 97%
    06:00 -4°C° 1.2 mm 1 mps 626 mmHg 97%
    07:00 -4°C° 1.2 mm 1 mps 627 mmHg 97%
    08:00 -3°C° 0.6 mm 1 mps 627 mmHg 96%
    09:00 -3°C° 0.6 mm 1 mps 628 mmHg 96%
    10:00 -3°C° 0.6 mm 1 mps 629 mmHg 95%
    11:00 -2°C° 0.5 mm 1 mps 629 mmHg 94%
    12:00 -2°C° 0.5 mm 1 mps 629 mmHg 94%
    13:00 -2°C° 0.5 mm 1 mps 630 mmHg 93%
    14:00 -2°C° 0.5 mm 1 mps 630 mmHg 94%
    15:00 -2°C° 0.5 mm 1 mps 630 mmHg 94%
    16:00 -2°C° 0.5 mm 1 mps 630 mmHg 94%
    17:00 -2°C° 0.2 mm 1 mps 631 mmHg 95%
    18:00 -3°C° 0.2 mm 1 mps 631 mmHg 96%
    19:00 -5°C° 0.2 mm 0 mps 631 mmHg 96%
    20:00 -5°C° 0.1 mm 0 mps 631 mmHg 96%
    21:00 -5°C° 0.1 mm 0 mps 632 mmHg 96%
    22:00 -5°C° 0.1 mm 0 mps 632 mmHg 95%
    23:00 -6°C° 0 mm 0 mps 632 mmHg 95%

    28 January, Sunday

    Time Temperature Precipitation Wind Pressure Humidity
    00:00 -6°C° 0 mm 0 mps 632 mmHg 94%
    01:00 -6°C° 0 mm 0 mps 632 mmHg 94%
    02:00 -7°C° 0 mm 0 mps 632 mmHg 93%
    03:00 -7°C° 0 mm 1 mps 631 mmHg 92%
    04:00 -7°C° 0 mm 1 mps 631 mmHg 92%
    05:00 -7°C° 0 mm 1 mps 632 mmHg 91%
    06:00 -7°C° 0 mm 1 mps 632 mmHg 90%
    07:00 -7°C° 0 mm 1 mps 632 mmHg 89%
    08:00 -6°C° 0 mm 1 mps 633 mmHg 88%
    09:00 -3°C° 0 mm 1 mps 634 mmHg 88%
    10:00 -2°C° 0 mm 1 mps 635 mmHg 87%
    11:00 -1°C° 0 mm 1 mps 634 mmHg 88%
    12:00 0°C° 0 mm 1 mps 634 mmHg 90%
    13:00 0°C° 0 mm 1 mps 634 mmHg 91%
    14:00 0°C° 0 mm 1 mps 634 mmHg 91%
    15:00 0°C° 0 mm 1 mps 634 mmHg 91%
    16:00 -1°C° 0 mm 1 mps 634 mmHg 91%
    17:00 -1°C° 0 mm 1 mps 634 mmHg 88%
    18:00 -2°C° 0 mm 1 mps 634 mmHg 84%
    19:00 -3°C° 0 mm 1 mps 634 mmHg 81%
    20:00 -5°C° 0 mm 2 mps 634 mmHg 79%
    21:00 -5°C° 0 mm 2 mps 634 mmHg 77%
    22:00 -5°C° 0 mm 2 mps 634 mmHg 75%
    23:00 -5°C° 0 mm 2 mps 634 mmHg 75%
    Show more